TimeCDT,TemperatureF,Dew PointF,Humidity,Sea Level PressureIn,VisibilityMPH,Wind Direction,Wind SpeedMPH,Gust SpeedMPH,PrecipitationIn,Events,Conditions,WindDirDegrees,DateUTC
12:53 AM,61.0,55.9,83,30.06,10.0,Calm,Calm,-,N/A,,Clear,0,2013-07-29 05:53:00
1:53 AM,59.0,55.9,90,30.06,10.0,Calm,Calm,-,N/A,,Clear,0,2013-07-29 06:53:00
2:53 AM,57.0,55.0,93,30.07,10.0,Calm,Calm,-,N/A,,Clear,0,2013-07-29 07:53:00
3:53 AM,57.0,54.0,89,30.08,10.0,Calm,Calm,-,N/A,,Clear,0,2013-07-29 08:53:00
4:53 AM,57.0,55.0,93,30.09,10.0,Calm,Calm,-,N/A,,Clear,0,2013-07-29 09:53:00
5:53 AM,55.9,54.0,93,30.11,10.0,Calm,Calm,-,N/A,,Clear,0,2013-07-29 10:53:00
6:48 AM,57.2,55.4,94,30.12,10.0,SE,3.5,-,N/A,,Partly Cloudy,130,2013-07-29 11:48:00
6:53 AM,59.0,55.9,90,30.12,10.0,Calm,Calm,-,N/A,,Clear,0,2013-07-29 11:53:00
7:53 AM,66.9,61.0,81,30.13,10.0,Calm,Calm,-,N/A,,Clear,0,2013-07-29 12:53:00
8:53 AM,71.1,59.0,66,30.14,10.0,Calm,Calm,-,N/A,,Scattered Clouds,0,2013-07-29 13:53:00
9:53 AM,73.0,59.0,61,30.15,10.0,SSE,3.5,-,N/A,,Overcast,160,2013-07-29 14:53:00
10:53 AM,75.0,59.0,57,30.15,10.0,SSE,5.8,-,N/A,,Overcast,150,2013-07-29 15:53:00
11:53 AM,75.9,57.9,54,30.15,10.0,South,3.5,-,N/A,,Mostly Cloudy,170,2013-07-29 16:53:00
12:53 PM,75.0,60.1,60,30.15,10.0,South,6.9,-,N/A,,Overcast,180,2013-07-29 17:53:00
1:53 PM,75.0,60.1,60,30.14,10.0,South,6.9,-,N/A,,Overcast,190,2013-07-29 18:53:00
2:53 PM,75.9,57.9,54,30.15,10.0,SSE,4.6,-,N/A,,Overcast,150,2013-07-29 19:53:00
3:53 PM,75.0,61.0,62,30.14,10.0,South,3.5,-,N/A,,Overcast,170,2013-07-29 20:53:00
4:53 PM,75.0,62.1,64,30.14,10.0,SSE,3.5,-,N/A,,Scattered Clouds,150,2013-07-29 21:53:00
5:53 PM,75.9,62.1,62,30.13,10.0,SE,4.6,-,N/A,,Clear,130,2013-07-29 22:53:00
6:53 PM,73.9,63.0,68,30.12,10.0,SE,3.5,-,0.00,,Mostly Cloudy,130,2013-07-29 23:53:00
7:53 PM,72.0,64.0,76,30.11,10.0,East,5.8,-,0.00,Rain,Light Rain,100,2013-07-30 00:53:00
8:53 PM,72.0,63.0,73,30.12,10.0,SSE,4.6,-,0.00,,Clear,150,2013-07-30 01:53:00
9:53 PM,71.1,64.0,78,30.12,10.0,SSE,4.6,-,N/A,,Clear,150,2013-07-30 02:53:00
10:53 PM,70.0,64.0,81,30.13,10.0,East,4.6,-,N/A,,Clear,80,2013-07-30 03:53:00
11:53 PM,70.0,64.0,81,30.11,10.0,SE,8.1,-,N/A,,Clear,130,2013-07-30 04:53:00